If you wish to contribute or participate in the discussions about articles you are invited to join SKYbrary as a registered user

 Actions

Sabadell Airport

From SKYbrary Wiki

LELL
Airport
ICAO: LELL – IATA: QSA
Summary
Name Sabadell Airport
Region Europe
Territory Spain ES.gif
Location Sabadell, Catalonia
Serving Sabadell
Elevation 147.828 m <br />485 ft <br />485 ft147.828 m <br />
Coordinates 41° 31' 10.36" N, 2° 6' 15.73" E
Runways
Designator Length Width Surface ROPS
13/31 900 m2,952.756 ft <br /> 0 m0 ft <br /> UNK /


METAR
Observation LELL 122330Z AUTO 27003KT CAVOK 24/16 Q1022
Station Sabadell
Date/Time 12 June 2021 23:30:00
Wind direction 270°
Wind speed 03 kts
Lowest cloud amount clouds and visibility OK
Temperature 24°C
Dew point 16°C
Humidity 60%
QNH 1022 hPa
Weather condition n/a

Sabadell Airport is located next to the city of Sabadell, 20 km10.799 nm <br />20,000 m <br />65,616.798 ft <br /> north of Barcelona's city center.

Climatology

Dry-summer subtropical ”Mediterranean" climate (Köppen climate classification Csa) - characterized by hot, dry summers and mild winters. During the summer, subtropical high pressure cells dominate, making rainfall unlikely except for the occasional thunderstorm. In the winter, periodic storms bring rain (snow at higher elevations).

Maps

Terrain

Loading map...

Airport Layout

Loading map...


Accidents & Serious Incidents at or in vicinity of LELL

None on SKYbrary